Angel Fire, NM

4:50 AM MST on November 21, 2019 (GMT -0700)
Angel Fire

Weather History for KAXX - June, 2019

Change the Weather History Date:

Monday, June 10, 2019

  Actual Average (WUND) Record (WUND)
Temperature  
Mean Temperature 46 °F -  
Max Temperature 59 °F - - (-1)
Min Temperature 34 °F - - (-1)
Degree Days  
Heating Degree Days 18    
Moisture  
Dew Point 35 °F    
Average Humidity 59    
Maximum Humidity 88    
Minimum Humidity 41    
Precipitation  
Precipitation 0.00 in - - ()
Sea Level Pressure  
Sea Level Pressure 30.58 in    
Wind  
Wind Speed 8 mph (SSW)    
Max Wind Speed 17 mph    
Max Gust Speed 26 mph    
Visibility 10 miles    
Events Rain    
Averages and records for this station are not official NWS values.
T = Trace of Precipitation, MM = Missing Value Source: NWS Daily Summary

Daily Weather History Graph

Daily Weather History Graph

Search for Another Location

Airport or City:

Astronomy

Jun. 10, 2019 Rise Set
Actual Time 5:42 AM MDT 8:18 PM MDT
Civil Twilight 5:12 AM MDT 8:48 PM MDT
Nautical Twilight 4:34 AM MDT 9:26 PM MDT
Astronomical Twilight 3:52 AM MDT 10:08 PM MDT
Moon 1:25 PM MDT (6/10) 1:41 AM MDT (6/10)
Length of Visible Light 15h 36m
Length of Day
14h 35m
First Quarter, 56% of the Moon is Illuminated
Jun 10
First Quarter
Jun 17
Full
Jun 25
Last Quarter
Jul 2
New
Jul 9
First Quarter

Hourly Weather History & Observations

Time (MDT) Temp. Windchill Dew Point Humidity Pressure Visibility Wind Dir Wind Speed Gust Speed Precip Events Conditions
12:15 AM 46.4 °F 40.7 °F 31.3 °F 56% 30.62 in 10.0 mi ESE 12.7 mph - N/A   Unknown
12:35 AM 45.9 °F 40.8 °F 31.3 °F 57% 30.62 in 10.0 mi SE 10.4 mph 18.4 mph N/A   Unknown
12:55 AM 45.7 °F 40.2 °F 32.0 °F 59% 30.62 in 10.0 mi ESE 11.5 mph - N/A   Unknown
1:15 AM 45.5 °F 41.8 °F 32.0 °F 59% 30.62 in 10.0 mi SE 6.9 mph - N/A   Unknown
1:35 AM 45.3 °F 43.0 °F 33.3 °F 63% 30.62 in 10.0 mi SW 4.6 mph - N/A   Unknown
1:55 AM 44.8 °F 41.6 °F 33.1 °F 64% 30.62 in 10.0 mi South 5.8 mph - N/A   Unknown
2:15 AM 44.6 °F 43.1 °F 33.1 °F 64% 30.62 in 10.0 mi SSE 3.5 mph - N/A   Unknown
2:35 AM 43.3 °F 40.7 °F 33.1 °F 67% 30.62 in 10.0 mi SSW 4.6 mph - N/A   Unknown
2:55 AM 41.9 °F 39.0 °F 33.3 °F 71% 30.62 in 10.0 mi SSW 4.6 mph - N/A   Unknown
3:15 AM 40.5 °F 36.5 °F 32.9 °F 74% 30.62 in 10.0 mi SSW 5.8 mph - N/A   Unknown
3:35 AM 41.4 °F 38.4 °F 33.3 °F 73% 30.63 in 10.0 mi SSE 4.6 mph - N/A   Unknown
3:55 AM 41.2 °F - 32.5 °F 71% 30.63 in 10.0 mi Calm Calm - N/A   Unknown
4:15 AM 39.0 °F - 32.9 °F 79% 30.63 in 10.0 mi Calm Calm - N/A   Unknown
4:35 AM 37.4 °F - 31.6 °F 80% 30.64 in 10.0 mi Calm Calm - N/A   Unknown
4:55 AM 36.9 °F 34.3 °F 31.6 °F 81% 30.64 in 10.0 mi WSW 3.5 mph - N/A   Unknown
5:15 AM 34.7 °F - 31.5 °F 88% 30.65 in 10.0 mi Calm Calm - N/A   Unknown
5:35 AM 34.9 °F - 31.6 °F 88% 30.66 in 10.0 mi Calm Calm - N/A   Unknown
5:55 AM 38.3 °F 33.9 °F 32.0 °F 78% 30.66 in 10.0 mi South 5.8 mph - N/A   Unknown
6:15 AM 39.4 °F 37.2 °F 32.4 °F 76% 30.66 in 10.0 mi ENE 3.5 mph - N/A   Unknown
6:35 AM 40.8 °F - 32.7 °F 73% 30.66 in 10.0 mi Calm Calm - N/A   Unknown
6:55 AM 42.1 °F 40.2 °F 32.4 °F 68% 30.66 in 10.0 mi SE 3.5 mph - N/A   Unknown
7:15 AM 41.5 °F 38.6 °F 32.7 °F 71% 30.67 in 10.0 mi WSW 4.6 mph - N/A Rain Light Rain
7:35 AM 41.0 °F 35.2 °F 34.0 °F 76% 30.67 in 10.0 mi South 9.2 mph - N/A   Unknown
7:55 AM 41.9 °F 36.9 °F 31.8 °F 67% 30.68 in 10.0 mi SSE 8.1 mph 21.9 mph N/A   Unknown
8:15 AM 43.0 °F 36.8 °F 31.6 °F 64% 30.67 in 10.0 mi SSE 11.5 mph 16.1 mph N/A   Unknown
8:35 AM 43.0 °F 36.0 °F 31.1 °F 63% 30.67 in 10.0 mi South 13.8 mph - N/A   Unknown
8:55 AM 43.5 °F 35.8 °F 30.7 °F 61% 30.67 in 10.0 mi SSE 17.3 mph 20.7 mph N/A   Unknown
9:15 AM 47.1 °F - 31.8 °F 55% 30.67 in 10.0 mi South 15.0 mph 21.9 mph N/A   Unknown
9:35 AM 48.2 °F - 31.6 °F 53% 30.65 in 10.0 mi South 16.1 mph 23.0 mph N/A   Unknown
9:55 AM 50.0 °F - 33.1 °F 52% 30.65 in 10.0 mi SSE 16.1 mph 26.5 mph N/A   Unknown
10:15 AM 50.2 °F - 32.7 °F 51% 30.64 in 10.0 mi SSE 16.1 mph 20.7 mph N/A   Unknown
10:35 AM 51.3 °F - 32.5 °F 49% 30.63 in 10.0 mi SSE 11.5 mph 16.1 mph N/A   Unknown
10:50 AM 52.5 °F - 34.2 °F 50% 30.64 in 10.0 mi South 15.0 mph - N/A   Unknown
11:15 AM 53.8 °F - 34.5 °F 48% 30.62 in 10.0 mi SSW 12.7 mph 16.1 mph N/A   Unknown
11:35 AM 54.3 °F - 33.8 °F 46% 30.62 in 10.0 mi South 9.2 mph - N/A   Unknown
11:55 AM 55.4 °F - 34.7 °F 46% 30.61 in 10.0 mi South 15.0 mph - N/A   Unknown
12:15 PM 55.8 °F - 33.3 °F 43% 30.60 in 10.0 mi South 16.1 mph - N/A   Unknown
12:35 PM 57.0 °F - 34.9 °F 43% 30.60 in 10.0 mi South 11.5 mph 18.4 mph N/A   Unknown
12:55 PM 56.5 °F - 33.1 °F 41% 30.58 in 10.0 mi South 10.4 mph 19.6 mph N/A   Unknown
1:15 PM 58.1 °F - 36.5 °F 44% 30.58 in 10.0 mi SW 8.1 mph - N/A   Unknown
1:35 PM 57.9 °F - 36.1 °F 44% 30.56 in 10.0 mi SSW 9.2 mph - N/A   Unknown
2:15 PM 59.2 °F - 36.3 °F 43% 30.55 in 10.0 mi SSW 9.2 mph - N/A   Unknown
2:35 PM 58.5 °F - 39.4 °F 49% 30.54 in 10.0 mi WSW 12.7 mph 18.4 mph N/A   Unknown
2:55 PM 59.4 °F - 39.4 °F 48% 30.54 in 10.0 mi West 12.7 mph 17.3 mph N/A   Unknown
3:15 PM 58.6 °F - 37.9 °F 46% 30.53 in 10.0 mi West 13.8 mph 18.4 mph N/A   Unknown
3:35 PM 59.2 °F - 38.3 °F 46% 30.53 in 10.0 mi WNW 13.8 mph - N/A   Unknown
3:55 PM 58.1 °F - 38.3 °F 48% 30.51 in 10.0 mi West 15.0 mph 21.9 mph N/A   Unknown
4:15 PM 59.2 °F - 39.6 °F 48% 30.51 in 10.0 mi West 17.3 mph - N/A   Unknown
4:35 PM 58.5 °F - 39.0 °F 48% 30.50 in 10.0 mi West 15.0 mph 20.7 mph N/A   Unknown
4:55 PM 58.6 °F - 39.4 °F 49% 30.49 in 10.0 mi West 11.5 mph 16.1 mph N/A   Unknown
5:15 PM 59.4 °F - 40.3 °F 49% 30.49 in 10.0 mi West 11.5 mph - N/A   Unknown
5:35 PM 58.8 °F - 38.8 °F 47% 30.47 in 10.0 mi West 16.1 mph 19.6 mph N/A   Unknown
5:55 PM 57.9 °F - 38.7 °F 49% 30.47 in 10.0 mi West 17.3 mph - N/A   Unknown
6:15 PM 57.2 °F - 38.3 °F 49% 30.46 in 10.0 mi West 13.8 mph 19.6 mph N/A   Unknown
6:35 PM 57.9 °F - 39.0 °F 49% 30.46 in 10.0 mi West 8.1 mph 16.1 mph N/A   Unknown
6:55 PM 57.2 °F - 38.5 °F 50% 30.46 in 10.0 mi West 15.0 mph 18.4 mph N/A   Unknown
7:15 PM 56.3 °F - 37.8 °F 50% 30.47 in 10.0 mi SW 4.6 mph 16.1 mph N/A   Unknown
7:35 PM 55.6 °F - 37.6 °F 51% 30.47 in 10.0 mi South 4.6 mph - N/A   Unknown
7:55 PM 55.2 °F - 37.9 °F 52% 30.47 in 10.0 mi SSE 3.5 mph - N/A   Unknown
8:15 PM 53.8 °F - 37.9 °F 55% 30.48 in 10.0 mi South 4.6 mph - N/A   Unknown
8:35 PM 53.4 °F - 37.9 °F 56% 30.49 in 10.0 mi Calm Calm - N/A   Unknown
8:55 PM 52.5 °F - 37.6 °F 57% 30.49 in 10.0 mi South 3.5 mph - N/A   Unknown
9:15 PM 51.3 °F - 37.4 °F 59% 30.50 in 10.0 mi ESE 4.6 mph - N/A   Unknown
9:30 PM 53.4 °F - 37.0 °F 54% 30.50 in 10.0 mi Calm Calm - N/A   Unknown
9:55 PM 51.6 °F - 36.7 °F 57% 30.50 in 10.0 mi Calm Calm - N/A   Unknown
10:15 PM 52.3 °F - 36.7 °F 55% 30.50 in 10.0 mi South 3.5 mph - N/A   Unknown
10:35 PM 45.9 °F - 37.4 °F 72% 30.50 in 10.0 mi Calm Calm - N/A   Unknown
10:55 PM 43.3 °F - 36.5 °F 77% 30.51 in 10.0 mi Calm Calm - N/A   Unknown
11:15 PM 40.3 °F 37.1 °F 35.8 °F 84% 30.51 in 10.0 mi West 4.6 mph - N/A   Unknown
11:35 PM 41.5 °F - 36.3 °F 82% 30.51 in 10.0 mi Calm Calm - N/A   Unknown
11:55 PM 40.3 °F 38.2 °F 35.2 °F 82% 30.50 in 10.0 mi SSE 3.5 mph - N/A   Unknown